| time (UTC) | temp F | wind direction | speed MPH | gust MPH | rain 1hr in | rain 24hr in | rain mn in | humidity % | barometer mb |
| 20260906144525 | 70 | 352 | 2.0 | 3.0 | 0.00 | 0.00 | 0.00 | 70 | 1018.6 |
| 20260906143019 | 70 | 335 | 0.0 | 3.0 | 0.00 | 0.00 | 0.00 | 72 | 1018.4 |
| 20260906141519 | 69 | 352 | 1.0 | 2.0 | 0.00 | 0.00 | 0.00 | 73 | 1018.4 |
| 20260906140012 | 68 | 344 | 0.0 | 2.0 | 0.00 | 0.00 | 0.00 | 73 | 1018.3 |
| 20260906134508 | 67 | 261 | 0.0 | 2.0 | 0.00 | 0.00 | 0.00 | 74 | 1018.1 |
| 20260906133031 | 67 | 5 | 1.0 | 3.0 | 0.00 | 0.00 | 0.00 | 74 | 1018.0 |
| 20260906131523 | 66 | 360 | 0.0 | 3.0 | 0.00 | 0.00 | 0.00 | 75 | 1018.0 |
| 20260906130026 | 65 | 360 | 0.0 | 3.0 | 0.00 | 0.00 | 0.00 | 75 | 1017.9 |
| 20260906124524 | 64 | 350 | 0.0 | 3.0 | 0.00 | 0.00 | 0.00 | 77 | 1017.9 |
| 20260906123023 | 63 | 352 | 0.0 | 2.0 | 0.00 | 0.00 | 0.00 | 78 | 1017.6 |
| 20260906121531 | 62 | 345 | 0.0 | 2.0 | 0.00 | 0.00 | 0.00 | 80 | 1017.5 |
| 20260906120026 | 62 | 333 | 0.0 | 0.0 | 0.00 | 0.01 | 0.00 | 81 | 1017.2 |
| 20260906114531 | 62 | 333 | 0.0 | 0.0 | 0.00 | 0.02 | 0.00 | 82 | 1017.1 |
| 20260906113029 | 62 | 333 | 0.0 | 0.0 | 0.00 | 0.03 | 0.00 | 82 | 1017.0 |
| 20260906111531 | 62 | 333 | 0.0 | 0.0 | 0.00 | 0.04 | 0.00 | 81 | 1016.8 |
| 20260906110024 | 62 | 333 | 0.0 | 0.0 | 0.00 | 0.07 | 0.00 | 81 | 1016.8 |
| 20260906104523 | 62 | 333 | 0.0 | 0.0 | 0.00 | 0.11 | 0.00 | 80 | 1016.8 |
| 20260906103028 | 63 | 333 | 0.0 | 2.0 | 0.00 | 0.16 | 0.00 | 80 | 1016.6 |
| 20260906101534 | 63 | 333 | 0.0 | 0.0 | 0.00 | 0.22 | 0.00 | 79 | 1016.6 |
| 20260906100033 | 64 | 333 | 0.0 | 0.0 | 0.00 | 0.26 | 0.00 | 79 | 1016.5 |
| 20260906094530 | 64 | 333 | 0.0 | 0.0 | 0.00 | 0.47 | 0.00 | 78 | 1016.5 |
| 20260906093038 | 65 | 333 | 0.0 | 0.0 | 0.00 | 0.51 | 0.00 | 77 | 1016.4 |
| 20260906091528 | 65 | 325 | 0.0 | 0.0 | 0.00 | 0.52 | 0.00 | 76 | 1016.4 |
| 20260906090021 | 66 | 262 | 0.0 | 0.0 | 0.00 | 0.54 | 0.00 | 76 | 1016.4 |
| 20260906084518 | 66 | 262 | 0.0 | 0.0 | 0.00 | 0.55 | 0.00 | 76 | 1016.2 |
| 20260906083029 | 66 | 262 | 0.0 | 0.0 | 0.00 | 0.55 | 0.00 | 75 | 1016.1 |
| 20260906081531 | 66 | 262 | 0.0 | 0.0 | 0.00 | 0.57 | 0.00 | 75 | 1016.2 |
| 20260906080038 | 67 | 262 | 0.0 | 0.0 | 0.00 | 0.57 | 0.00 | 75 | 1016.1 |
| 20260906074532 | 67 | 262 | 0.0 | 1.0 | 0.00 | 0.57 | 0.00 | 74 | 1016.1 |
| 20260906073027 | 67 | 309 | 0.0 | 2.0 | 0.00 | 0.57 | 0.00 | 74 | 1016.0 |
| 20260906071528 | 67 | 352 | 0.0 | 0.0 | 0.00 | 0.57 | 0.00 | 73 | 1016.0 |
| 20260906070018 | 68 | 349 | 0.0 | 0.0 | 0.00 | 0.57 | 0.00 | 72 | 1016.0 |
| 20260906064531 | 68 | 339 | 0.0 | 1.0 | 0.00 | 0.57 | 0.00 | 72 | 1016.2 |
| 20260906063034 | 68 | 317 | 0.0 | 2.0 | 0.00 | 0.57 | 0.00 | 72 | 1016.1 |
| 20260906061531 | 68 | 352 | 0.0 | 2.0 | 0.00 | 0.57 | 0.00 | 73 | 1016.1 |
| 20260906060032 | 68 | 260 | 0.0 | 2.0 | 0.00 | 0.57 | 0.00 | 73 | 1016.0 |
| 20260906054530 | 68 | 267 | 0.0 | 0.0 | 0.00 | 0.57 | 0.00 | 75 | 1015.8 |
| 20260906053025 | 68 | 265 | 0.0 | 2.0 | 0.00 | 0.57 | 0.00 | 76 | 1015.8 |
| 20260906051518 | 68 | 345 | 1.0 | 2.0 | 0.00 | 0.57 | 0.00 | 77 | 1015.7 |
| 20260906050014 | 68 | 360 | 0.0 | 2.0 | 0.00 | 0.57 | 0.00 | 78 | 1015.6 |
| 20260906044516 | 69 | 349 | 0.0 | 0.0 | 0.00 | 0.57 | 0.00 | 79 | 1015.5 |
| 20260906043033 | 69 | 340 | 0.0 | 0.0 | 0.00 | 0.57 | 0.00 | 80 | 1015.2 |
| 20260906041529 | 70 | 5 | 0.0 | 0.0 | 0.00 | 0.57 | 0.00 | 80 | 1015.1 |
| 20260906040031 | 70 | 352 | 0.0 | 0.0 | 0.00 | 0.57 | 0.00 | 80 | 1015.2 |
| 20260906034546 | 71 | 338 | 0.0 | 0.0 | 0.00 | 0.57 | 0.57 | 79 | 1015.4 |
| 20260906033023 | 71 | 347 | 0.0 | 0.0 | 0.00 | 0.57 | 0.57 | 81 | 1015.4 |
| 20260906031526 | 72 | 9 | 0.0 | 0.0 | 0.00 | 0.57 | 0.57 | 82 | 1015.3 |
| 20260906030011 | 72 | 9 | 0.0 | 0.0 | 0.00 | 0.57 | 0.57 | 84 | 1015.4 |
| 20260906024536 | 73 | 9 | 0.0 | 0.0 | 0.00 | 0.57 | 0.57 | 85 | 1015.4 |
| 20260906023032 | 73 | 352 | 0.0 | 0.0 | 0.00 | 0.57 | 0.57 | 85 | 1015.4 |
| 20260906021538 | 73 | 352 | 0.0 | 0.0 | 0.00 | 0.57 | 0.57 | 85 | 1015.3 |
| 20260906020028 | 74 | 352 | 0.0 | 0.0 | 0.00 | 0.57 | 0.57 | 85 | 1014.9 |
| 20260906014530 | 74 | 352 | 0.0 | 2.0 | 0.00 | 0.57 | 0.57 | 84 | 1014.6 |
| 20260906013020 | 75 | 20 | 0.0 | 2.0 | 0.00 | 0.57 | 0.57 | 83 | 1014.5 |
| 20260906011533 | 75 | 5 | 1.0 | 2.0 | 0.00 | 0.57 | 0.57 | 82 | 1014.3 |
| 20260906010040 | 75 | 9 | 0.0 | 0.0 | 0.00 | 0.57 | 0.57 | 81 | 1014.2 |
| 20260906004533 | 76 | 360 | 0.0 | 0.0 | 0.00 | 0.57 | 0.57 | 82 | 1014.3 |
| 20260906003032 | 76 | 13 | 0.0 | 0.0 | 0.00 | 0.57 | 0.57 | 81 | 1014.3 |
| 20260906001543 | 76 | 349 | 0.0 | 0.0 | 0.00 | 0.57 | 0.57 | 82 | 1014.2 |
| 20260906000025 | 77 | 349 | 0.0 | 0.0 | 0.00 | 0.57 | 0.57 | 82 | 1014.2 |
| 20260905234517 | 77 | 349 | 0.0 | 0.0 | 0.00 | 0.57 | 0.57 | 80 | 1014.4 |
| 20260905233035 | 78 | 349 | 0.0 | 0.0 | 0.00 | 0.57 | 0.57 | 77 | 1014.1 |
| 20260905231532 | 79 | 349 | 0.0 | 0.0 | 0.00 | 0.57 | 0.57 | 76 | 1013.8 |
| 20260905230034 | 79 | 349 | 0.0 | 0.0 | 0.00 | 0.57 | 0.57 | 74 | 1013.7 |
| 20260905224530 | 80 | 344 | 0.0 | 0.0 | 0.00 | 0.57 | 0.57 | 75 | 1013.5 |
| 20260905223042 | 80 | 344 | 0.0 | 0.0 | 0.00 | 0.57 | 0.57 | 74 | 1013.4 |
| 20260905221526 | 80 | 344 | 0.0 | 0.0 | 0.00 | 0.57 | 0.57 | 72 | 1013.3 |
| 20260905220024 | 81 | 344 | 0.0 | 0.0 | 0.00 | 0.57 | 0.57 | 69 | 1013.5 |
| 20260905214540 | 82 | 352 | 0.0 | 0.0 | 0.00 | 0.57 | 0.57 | 69 | 1013.6 |
| 20260905213034 | 83 | 351 | 0.0 | 0.0 | 0.00 | 0.57 | 0.57 | 69 | 1013.5 |
| 20260905211532 | 83 | 269 | 0.0 | 0.0 | 0.00 | 0.57 | 0.57 | 68 | 1013.4 |
| 20260905210044 | 81 | 9 | 0.0 | 0.0 | 0.00 | 0.57 | 0.57 | 70 | 1013.5 |
| 20260905204533 | 81 | 271 | 0.0 | 0.0 | 0.00 | 0.57 | 0.57 | 72 | 1013.7 |
| 20260905203026 | 81 | 271 | 0.0 | 0.0 | 0.00 | 0.57 | 0.57 | 72 | 1013.8 |
| 20260905201524 | 81 | 271 | 0.0 | 0.0 | 0.00 | 0.57 | 0.57 | 71 | 1014.0 |
| 20260905200021 | 82 | 345 | 0.0 | 0.0 | 0.00 | 0.57 | 0.57 | 69 | 1014.1 |
| 20260905194534 | 83 | 338 | 0.0 | 0.0 | 0.00 | 0.57 | 0.57 | 68 | 1014.1 |
| 20260905193017 | 82 | 350 | 0.0 | 0.0 | 0.00 | 0.57 | 0.57 | 68 | 1014.3 |
| 20260905191508 | 81 | 252 | 0.0 | 0.0 | 0.00 | 0.57 | 0.57 | 73 | 1014.6 |
| 20260905190004 | 80 | 252 | 0.0 | 0.0 | 0.00 | 0.57 | 0.57 | 73 | 1014.7 |
| 20260905184535 | 81 | 261 | 0.0 | 0.0 | 0.00 | 0.57 | 0.57 | 69 | 1014.7 |
| 20260905183034 | 82 | 208 | 0.0 | 5.0 | 0.00 | 0.57 | 0.57 | 68 | 1014.8 |
| 20260905181520 | 82 | 150 | 0.0 | 0.0 | 0.00 | 0.57 | 0.57 | 68 | 1014.9 |
| 20260905180017 | 82 | 252 | 0.0 | 2.0 | 0.00 | 0.57 | 0.57 | 70 | 1014.9 |
| 20260905174515 | 82 | 264 | 0.0 | 0.0 | 0.00 | 0.57 | 0.57 | 67 | 1014.9 |
| 20260905173015 | 82 | 264 | 0.0 | 0.0 | 0.00 | 0.57 | 0.57 | 71 | 1015.1 |
| 20260905171507 | 81 | 57 | 0.0 | 2.0 | 0.00 | 0.63 | 0.57 | 70 | 1015.2 |
| 20260905170028 | 81 | 46 | 0.0 | 2.0 | 0.00 | 0.65 | 0.57 | 72 | 1015.3 |
| 20260905164525 | 80 | 164 | 0.0 | 1.0 | 0.00 | 0.68 | 0.57 | 74 | 1015.3 |
| 20260905163019 | 80 | 31 | 0.0 | 0.0 | 0.00 | 0.68 | 0.57 | 75 | 1015.3 |
| 20260905161517 | 80 | 169 | 0.0 | 0.0 | 0.00 | 0.68 | 0.57 | 75 | 1015.1 |
| 20260905160011 | 79 | 99 | 0.0 | 2.0 | 0.00 | 0.69 | 0.57 | 80 | 1015.0 |
| 20260905154510 | 76 | 267 | 0.0 | 0.0 | 0.00 | 0.77 | 0.57 | 80 | 1015.0 |
| 20260905153009 | 74 | 178 | 0.0 | 0.0 | 0.00 | 0.78 | 0.57 | 86 | 1014.8 |
| 20260905151529 | 73 | 351 | 0.0 | 0.0 | 0.00 | 0.79 | 0.57 | 88 | 1015.0 |
| 20260905150026 | 72 | 360 | 0.0 | 0.0 | 0.00 | 0.79 | 0.57 | 91 | 1014.9 |